レモン彗星

C/2018 U1 ( Lemmon )

English version
Home page
Updated on July 8, 2020

---------------------------------------------------------------------

・ プロフィール

発見日 2018年10月27日
発見光度 20.0等
発見者 R. A. Kowalski (Mount Lemmon Survey)

・ 写真集

・ 軌道要素

Epoch 2021 Nov. 2.0 TT = JDT 2459520.5
T 2021 Nov. 3.07795 TT                                  Rudenko
q   4.9928710            (2000.0)            P               Q
z  -0.0002771      Peri.  180.46512     -0.25316918     -0.30189945
 +/-0.0000010      Node    75.48047     -0.88449838     +0.45707822
e   1.0013833      Incl.  108.29878     -0.39187750     -0.83662191
From 774 observations 2018 Oct. 27-2020 June 25, mean residual 0".4.

・ 星図

・ 光度変化

        m1 = 4.5 + 5 logΔ + 10.0 log r

---------------------------------------------------------------------

軌道要素はM.P.E.C. 2020-M114に掲載されたものです。
星図はステラナビゲータ Ver.10 (アストロアーツ) で作成したものです。
光度グラフはComet for Windowsで作成したものです。

---------------------------------------------------------------------

Copyright(C) Seiichi Yoshida (comet@aerith.net). All rights reserved.